• In United Kingdom
  • List of Countries
  • For 7 days
  • Water Temperature
  • Satellite Maps
  • Weather Map
  • Weather Widgets
  • user-avatar
    Login

    Hourly Weather Chihuahua

    Today, 18 January, Thursday

    Time Temperature Precipitation Wind Pressure Humidity
    00:00 +7°C° 0 mm 1 mps 643 mmHg 48%
    01:00 +6°C° 0 mm 1 mps 642 mmHg 49%
    02:00 +6°C° 0 mm 1 mps 642 mmHg 51%
    03:00 +6°C° 0 mm 1 mps 642 mmHg 53%
    04:00 +4°C° 0 mm 0 mps 642 mmHg 54%
    05:00 +4°C° 0 mm 0 mps 641 mmHg 56%
    06:00 +4°C° 0 mm 0 mps 642 mmHg 54%
    07:00 +5°C° 0 mm 0 mps 642 mmHg 51%
    08:00 +5°C° 0 mm 0 mps 643 mmHg 49%
    09:00 +7°C° 0 mm 0 mps 643 mmHg 45%
    10:00 +8°C° 0 mm 0 mps 643 mmHg 42%
    11:00 +10°C° 0 mm 0 mps 643 mmHg 39%
    12:00 +12°C° 0 mm 1 mps 643 mmHg 36%
    13:00 +13°C° 0 mm 1 mps 643 mmHg 34%
    14:00 +14°C° 0 mm 1 mps 642 mmHg 31%
    15:00 +14°C° 0 mm 1 mps 642 mmHg 31%
    16:00 +14°C° 0 mm 2 mps 642 mmHg 32%
    17:00 +14°C° 0 mm 2 mps 642 mmHg 32%
    18:00 +13°C° 0 mm 2 mps 642 mmHg 35%
    19:00 +12°C° 0 mm 1 mps 642 mmHg 39%
    20:00 +10°C° 0 mm 1 mps 642 mmHg 42%
    21:00 +10°C° 0 mm 1 mps 642 mmHg 43%
    22:00 +10°C° 0 mm 1 mps 642 mmHg 45%
    23:00 +9°C° 0 mm 1 mps 642 mmHg 46%

    Tomorrow, 19 January, Friday

    Time Temperature Precipitation Wind Pressure Humidity
    00:00 +9°C° 0 mm 1 mps 642 mmHg 47%
    01:00 +8°C° 0 mm 1 mps 641 mmHg 48%
    02:00 +8°C° 0 mm 1 mps 641 mmHg 50%
    03:00 +8°C° 0 mm 1 mps 641 mmHg 51%
    04:00 +7°C° 0 mm 1 mps 640 mmHg 52%
    05:00 +7°C° 0 mm 1 mps 640 mmHg 53%
    06:00 +8°C° 0 mm 1 mps 641 mmHg 51%
    07:00 +9°C° 0 mm 1 mps 641 mmHg 49%
    08:00 +9°C° 0 mm 1 mps 641 mmHg 48%
    09:00 +10°C° 0 mm 2 mps 642 mmHg 41%
    10:00 +14°C° 0 mm 2 mps 642 mmHg 35%
    11:00 +16°C° 0 mm 3 mps 643 mmHg 29%
    12:00 +17°C° 0 mm 3 mps 642 mmHg 25%
    13:00 +18°C° 0 mm 3 mps 642 mmHg 21%
    14:00 +20°C° 0 mm 3 mps 641 mmHg 18%
    15:00 +20°C° 0 mm 3 mps 641 mmHg 18%
    16:00 +19°C° 0 mm 2 mps 641 mmHg 19%
    17:00 +19°C° 0 mm 2 mps 640 mmHg 20%
    18:00 +18°C° 0 mm 2 mps 640 mmHg 22%
    19:00 +16°C° 0 mm 2 mps 640 mmHg 25%
    20:00 +15°C° 0 mm 2 mps 640 mmHg 27%
    21:00 +14°C° 0 mm 2 mps 640 mmHg 29%
    22:00 +13°C° 0 mm 2 mps 640 mmHg 30%
    23:00 +13°C° 0 mm 2 mps 640 mmHg 32%

    Day after tomorrow, 20 January, Saturday

    Time Temperature Precipitation Wind Pressure Humidity
    00:00 +12°C° 0 mm 2 mps 640 mmHg 34%
    01:00 +12°C° 0 mm 2 mps 639 mmHg 36%
    02:00 +10°C° 0 mm 2 mps 639 mmHg 38%
    03:00 +10°C° 0 mm 2 mps 639 mmHg 40%
    04:00 +9°C° 0 mm 2 mps 638 mmHg 42%
    05:00 +9°C° 0 mm 2 mps 638 mmHg 44%
    06:00 +9°C° 0 mm 2 mps 638 mmHg 43%
    07:00 +10°C° 0 mm 2 mps 639 mmHg 43%
    08:00 +10°C° 0 mm 2 mps 639 mmHg 42%
    09:00 +12°C° 0 mm 3 mps 640 mmHg 35%
    10:00 +15°C° 0 mm 4 mps 640 mmHg 28%
    11:00 +17°C° 0 mm 5 mps 641 mmHg 21%
    12:00 +20°C° 0 mm 6 mps 640 mmHg 18%
    13:00 +21°C° 0 mm 7 mps 640 mmHg 15%
    14:00 +23°C° 0 mm 8 mps 639 mmHg 13%
    15:00 +22°C° 0 mm 8 mps 639 mmHg 14%
    16:00 +21°C° 0 mm 8 mps 638 mmHg 16%
    17:00 +21°C° 0 mm 8 mps 638 mmHg 17%
    18:00 +18°C° 0 mm 8 mps 638 mmHg 21%
    19:00 +16°C° 0 mm 8 mps 638 mmHg 25%
    20:00 +15°C° 0 mm 8 mps 638 mmHg 28%
    21:00 +13°C° 0 mm 8 mps 638 mmHg 31%
    22:00 +12°C° 0 mm 8 mps 638 mmHg 33%
    23:00 +11°C° 0 mm 8 mps 637 mmHg 36%

    21 January, Sunday

    Time Temperature Precipitation Wind Pressure Humidity
    00:00 +11°C° 0 mm 9 mps 637 mmHg 36%
    01:00 +9°C° 0 mm 10 mps 637 mmHg 36%
    02:00 +9°C° 0 mm 11 mps 637 mmHg 36%
    03:00 +9°C° 0 mm 10 mps 638 mmHg 36%
    04:00 +8°C° 0 mm 10 mps 638 mmHg 37%
    05:00 +8°C° 0 mm 9 mps 638 mmHg 38%
    06:00 +7°C° 0 mm 8 mps 638 mmHg 38%
    07:00 +8°C° 0 mm 6 mps 639 mmHg 38%
    08:00 +8°C° 0 mm 4 mps 640 mmHg 39%
    09:00 +11°C° 0 mm 4 mps 640 mmHg 32%
    10:00 +12°C° 0 mm 4 mps 641 mmHg 26%
    11:00 +14°C° 0 mm 4 mps 641 mmHg 19%
    12:00 +15°C° 0 mm 4 mps 641 mmHg 17%
    13:00 +16°C° 0 mm 5 mps 640 mmHg 14%
    14:00 +17°C° 0 mm 6 mps 640 mmHg 11%
    15:00 +17°C° 0 mm 6 mps 640 mmHg 12%
    16:00 +16°C° 0 mm 5 mps 640 mmHg 13%
    17:00 +16°C° 0 mm 5 mps 640 mmHg 13%
    18:00 +14°C° 0 mm 5 mps 640 mmHg 15%
    19:00 +12°C° 0 mm 4 mps 641 mmHg 16%
    20:00 +10°C° 0 mm 3 mps 641 mmHg 17%
    21:00 +9°C° 0 mm 3 mps 641 mmHg 18%
    22:00 +8°C° 0 mm 2 mps 641 mmHg 19%
    23:00 +8°C° 0 mm 1 mps 641 mmHg 21%

    22 January, Monday

    Time Temperature Precipitation Wind Pressure Humidity
    00:00 +7°C° 0 mm 1 mps 641 mmHg 22%
    01:00 +7°C° 0 mm 1 mps 641 mmHg 22%
    02:00 +6°C° 0 mm 1 mps 641 mmHg 23%
    03:00 +6°C° 0 mm 1 mps 641 mmHg 24%
    04:00 +5°C° 0 mm 1 mps 641 mmHg 25%
    05:00 +5°C° 0 mm 1 mps 641 mmHg 25%
    06:00 +5°C° 0 mm 1 mps 641 mmHg 25%
    07:00 +5°C° 0 mm 1 mps 642 mmHg 24%
    08:00 +6°C° 0 mm 1 mps 643 mmHg 23%
    09:00 +7°C° 0 mm 1 mps 643 mmHg 21%
    10:00 +7°C° 0 mm 2 mps 643 mmHg 19%
    11:00 +9°C° 0 mm 2 mps 642 mmHg 18%
    12:00 +10°C° 0 mm 2 mps 642 mmHg 17%
    13:00 +12°C° 0 mm 2 mps 641 mmHg 16%
    14:00 +13°C° 0 mm 2 mps 640 mmHg 15%
    15:00 +13°C° 0 mm 2 mps 640 mmHg 15%
    16:00 +12°C° 0 mm 3 mps 640 mmHg 16%
    17:00 +12°C° 0 mm 3 mps 640 mmHg 16%
    18:00 +12°C° 0 mm 2 mps 640 mmHg 18%
    19:00 +10°C° 0 mm 2 mps 640 mmHg 20%
    20:00 +10°C° 0 mm 1 mps 640 mmHg 22%
    21:00 +9°C° 0 mm 1 mps 640 mmHg 23%
    22:00 +9°C° 0 mm 1 mps 639 mmHg 24%
    23:00 +8°C° 0 mm 1 mps 639 mmHg 25%

    23 January, Tuesday

    Time Temperature Precipitation Wind Pressure Humidity
    00:00 +8°C° 0 mm 1 mps 638 mmHg 25%
    01:00 +7°C° 0 mm 1 mps 638 mmHg 26%
    02:00 +7°C° 0 mm 1 mps 637 mmHg 26%
    03:00 +7°C° 0 mm 1 mps 637 mmHg 27%
    04:00 +6°C° 0 mm 1 mps 637 mmHg 27%
    05:00 +6°C° 0 mm 1 mps 637 mmHg 27%
    06:00 +7°C° 0 mm 1 mps 637 mmHg 27%
    07:00 +8°C° 0 mm 1 mps 638 mmHg 27%
    08:00 +8°C° 0 mm 1 mps 639 mmHg 27%
    09:00 +10°C° 0 mm 1 mps 639 mmHg 23%
    10:00 +12°C° 0 mm 1 mps 639 mmHg 20%
    11:00 +14°C° 0 mm 1 mps 640 mmHg 17%
    12:00 +15°C° 0 mm 2 mps 640 mmHg 16%
    13:00 +16°C° 0 mm 2 mps 639 mmHg 14%
    14:00 +17°C° 0 mm 2 mps 639 mmHg 13%
    15:00 +17°C° 0 mm 3 mps 639 mmHg 14%
    16:00 +15°C° 0 mm 4 mps 640 mmHg 15%
    17:00 +15°C° 0 mm 5 mps 640 mmHg 16%
    18:00 +14°C° 0 mm 4 mps 640 mmHg 18%
    19:00 +12°C° 0 mm 4 mps 641 mmHg 20%
    20:00 +11°C° 0 mm 3 mps 641 mmHg 21%
    21:00 +10°C° 0 mm 3 mps 641 mmHg 21%
    22:00 +9°C° 0 mm 3 mps 642 mmHg 22%
    23:00 +8°C° 0 mm 3 mps 642 mmHg 22%
    Show more